Regional Weather Roundup
Issued by NWS

Home | Current Version | Previous Version | Graphics & Text | Print | Product List | Glossary On
Versions: 1 2 3 4 5 6 7 8 9 10 11 12 13 14 15 16 17 18 19 20 21 22 23 24 25 26 27 28 29 30 31 32 33 34 35 36 37 38 39 40 41 42 43 44 45 46 47 48 49 50
913
ASUS44 KLIX 172101
RWRLA
LOUISIANA WEATHER ROUNDUP
NATIONAL WEATHER SERVICE NEW ORLEANS LA
400 PM CDT WED SEP 17 2014

NOTE: "FAIR" INDICATES FEW OR NO CLOUDS BELOW 12,000 FEET WITH NO
      SIGNIFICANT WEATHER AND/OR OBSTRUCTIONS TO VISIBILITY.
      SKY/WX - SKY CONDITION AND SIGNIFICANT WEATHER.
      TMP - AIR TEMPERATURE.    DP   - DEWPOINT TEMPERATURE.
      RH  - RELATIVE HUMIDITY.  PRES - PRESSURE.
      HX  - HEAT INDEX.         WCI  - WIND CHILL INDEX.

*  THESE STATIONS ARE NOT NWS OR FAA STATIONS AND ARE NOT UNDER
   NWS QUALITY CONTROL.

LAZ040-048-061>063-065-066-069-172200-
SOUTHEAST LOUISIANA

CITY           SKY/WX    TMP DP  RH WIND       PRES   REMARKS
N.O. AUDUBON     N/A     89  74  60 MISG        N/A  HX  99
N.O. INTL ARPT CLOUDY    87  69  54 NE6       29.91F
N.O. LAKEFRONT PTSUNNY   86  71  60 N5        29.91F
N.O. DOWNTOWN* FAIR      88  66  48 N5        29.90F
SLIDELL        MOSUNNY   85  74  69 S7        29.90F
BATON ROUGE    PTSUNNY   87  72  60 CALM      29.90F
BOOTHVILLE     PTSUNNY   82  72  71 SE6       29.92F
BELLE CHASSE   PTSUNNY   87  71  58 E5        29.89F
BOGALUSA*      FAIR      91  66  44 CALM      29.91F
GALLIANO*      NOT AVBL
NEW ROADS*     FAIR      86  72  63 N3        29.90F
GONZALES*      FAIR      88  73  62 CALM      29.90F HX  95
HAMMOND*       NOT AVBL
HOUMA*         PTSUNNY   88  72  58 NE14      29.91F
PORT FOURCHON* CLOUDY    84  73  70 CALM      29.95F

$$

LAZ041-044-053-054-172200-
SOUTHWEST LOUISIANA

CITY           SKY/WX    TMP DP  RH WIND       PRES   REMARKS
LAKE CHARLES   TSTM      77  75  93 S8        29.93R
LAFAYETTE      MOSUNNY   89  72  56 VRB3      29.90F HX  96
PATTERSON      MOSUNNY   88  75  66 CALM      29.93  HX  97
SALT POINT       N/A     86  75  69 VRB3      29.91F HX  95
NEW IBERIA     PTSUNNY   90  73  57 E6        29.91F HX  98
CHENAULT AIRPK LGT RAIN  79  75  89 S13       29.92R

$$

LAZ027-028-172200-
CENTRAL LOUISIANA

CITY           SKY/WX    TMP DP  RH WIND       PRES   REMARKS
FORT POLK      MOSUNNY   86  72  62 S5        29.90F
ALEXANDRIA INT MOSUNNY   87  72  60 E5        29.88F
ALEXANDRIA     PTSUNNY   87  71  58 CALM      29.91F

$$

LAZ001-002-172200-
NORTHWEST LOUISIANA

CITY           SKY/WX    TMP DP  RH WIND       PRES   REMARKS
SHREVEPORT     PTSUNNY   89  68  49 SW3       29.88F
BARKSDALE AFB  PTSUNNY   90  69  49 VRB7      29.89F
DTN SHREVEPORT PTSUNNY   89  68  49 VRB3      29.89F

$$

LAZ014-016-172200-
NORTHEAST LOUISIANA

CITY           SKY/WX    TMP DP  RH WIND       PRES   REMARKS
MONROE         SUNNY     88  69  53 SW3       29.91F
TALLULAH       PTSUNNY   93  66  40 MISG      29.90F HX  96

$$




USA.gov is the U.S. government's official web portal to all federal, state and local government web resources and services.